EN

Hourly Weather Novyy Yurt

Today, 14 May, Friday

Time Temperature Precipitation Wind Pressure Humidity
00:00 +18°C° 0.1 mm 3 mps 754 mmHg 70%
01:00 +18°C° 0 mm 3 mps 754 mmHg 72%
02:00 +17°C° 0 mm 3 mps 754 mmHg 74%
03:00 +16°C° 0 mm 2 mps 754 mmHg 77%
04:00 +17°C° 0.1 mm 2 mps 754 mmHg 77%
05:00 +18°C° 0.1 mm 2 mps 754 mmHg 77%
06:00 +18°C° 0.1 mm 2 mps 754 mmHg 77%
07:00 +20°C° 0 mm 3 mps 754 mmHg 67%
08:00 +22°C° 0 mm 4 mps 754 mmHg 57%
09:00 +25°C° 0 mm 5 mps 754 mmHg 46%
10:00 +26°C° 0 mm 5 mps 754 mmHg 44%
11:00 +27°C° 0 mm 6 mps 753 mmHg 41%
12:00 +27°C° 0 mm 6 mps 753 mmHg 39%
13:00 +27°C° 0 mm 6 mps 753 mmHg 40%
14:00 +28°C° 0 mm 5 mps 753 mmHg 41%
15:00 +28°C° 0 mm 5 mps 753 mmHg 42%
16:00 +27°C° 0 mm 5 mps 752 mmHg 47%
17:00 +26°C° 0 mm 4 mps 752 mmHg 51%
18:00 +23°C° 0 mm 4 mps 752 mmHg 56%
19:00 +22°C° 0 mm 3 mps 752 mmHg 61%
20:00 +20°C° 0 mm 3 mps 752 mmHg 65%
21:00 +19°C° 0 mm 2 mps 752 mmHg 70%
22:00 +18°C° 0 mm 2 mps 752 mmHg 74%
23:00 +18°C° 0 mm 2 mps 752 mmHg 77%

Tomorrow, 15 May, Saturday

Time Temperature Precipitation Wind Pressure Humidity
00:00 +18°C° 0 mm 2 mps 752 mmHg 80%
01:00 +18°C° 0 mm 2 mps 752 mmHg 82%
02:00 +17°C° 0 mm 2 mps 752 mmHg 84%
03:00 +18°C° 0 mm 1 mps 752 mmHg 86%
04:00 +18°C° 0 mm 2 mps 752 mmHg 83%
05:00 +18°C° 0 mm 2 mps 752 mmHg 79%
06:00 +19°C° 0 mm 2 mps 752 mmHg 76%
07:00 +21°C° 0 mm 3 mps 752 mmHg 68%
08:00 +24°C° 0 mm 3 mps 752 mmHg 60%
09:00 +25°C° 0 mm 4 mps 752 mmHg 52%
10:00 +27°C° 0 mm 4 mps 752 mmHg 46%
11:00 +28°C° 0 mm 5 mps 752 mmHg 41%
12:00 +29°C° 0 mm 6 mps 752 mmHg 36%
13:00 +30°C° 0 mm 6 mps 752 mmHg 36%
14:00 +30°C° 0 mm 6 mps 752 mmHg 36%
15:00 +30°C° 0 mm 6 mps 751 mmHg 35%
16:00 +29°C° 0 mm 5 mps 751 mmHg 39%
17:00 +28°C° 0 mm 5 mps 751 mmHg 43%
18:00 +26°C° 0 mm 5 mps 751 mmHg 47%
19:00 +25°C° 0 mm 4 mps 751 mmHg 50%
20:00 +22°C° 0 mm 4 mps 751 mmHg 54%
21:00 +20°C° 0 mm 4 mps 751 mmHg 57%
22:00 +19°C° 0 mm 3 mps 751 mmHg 58%
23:00 +19°C° 0 mm 3 mps 751 mmHg 59%

Day after tomorrow, 16 May, Sunday

Time Temperature Precipitation Wind Pressure Humidity
00:00 +18°C° 0 mm 3 mps 751 mmHg 60%
01:00 +17°C° 0 mm 3 mps 751 mmHg 60%
02:00 +17°C° 0 mm 3 mps 751 mmHg 61%
03:00 +17°C° 0 mm 3 mps 751 mmHg 62%
04:00 +17°C° 0 mm 3 mps 751 mmHg 61%
05:00 +18°C° 0 mm 3 mps 751 mmHg 60%
06:00 +19°C° 0 mm 3 mps 751 mmHg 59%
07:00 +21°C° 0 mm 4 mps 751 mmHg 54%
08:00 +23°C° 0 mm 4 mps 751 mmHg 48%
09:00 +25°C° 0 mm 5 mps 751 mmHg 43%
10:00 +27°C° 0 mm 5 mps 751 mmHg 40%
11:00 +28°C° 0 mm 6 mps 751 mmHg 37%
12:00 +29°C° 0 mm 6 mps 751 mmHg 34%
13:00 +30°C° 0 mm 6 mps 751 mmHg 35%
14:00 +30°C° 0 mm 6 mps 750 mmHg 35%
15:00 +30°C° 0 mm 5 mps 750 mmHg 36%
16:00 +29°C° 0 mm 5 mps 750 mmHg 41%
17:00 +28°C° 0 mm 4 mps 750 mmHg 46%
18:00 +27°C° 0 mm 3 mps 750 mmHg 52%
19:00 +25°C° 0 mm 3 mps 750 mmHg 58%
20:00 +22°C° 0 mm 3 mps 750 mmHg 65%
21:00 +20°C° 0 mm 2 mps 750 mmHg 72%
22:00 +19°C° 0 mm 2 mps 750 mmHg 77%
23:00 +18°C° 0 mm 2 mps 750 mmHg 82%

17 May, Monday

Time Temperature Precipitation Wind Pressure Humidity
00:00 +19°C° 0 mm 1 mps 750 mmHg 87%
01:00 +18°C° 0 mm 1 mps 751 mmHg 88%
02:00 +18°C° 0 mm 1 mps 751 mmHg 89%
03:00 +18°C° 0 mm 1 mps 751 mmHg 89%
04:00 +19°C° 0 mm 1 mps 751 mmHg 85%
05:00 +20°C° 0 mm 1 mps 751 mmHg 81%
06:00 +21°C° 0 mm 1 mps 752 mmHg 77%
07:00 +22°C° 0 mm 1 mps 752 mmHg 70%
08:00 +24°C° 0 mm 1 mps 752 mmHg 64%
09:00 +25°C° 0 mm 2 mps 752 mmHg 58%
10:00 +26°C° 0 mm 2 mps 752 mmHg 52%
11:00 +27°C° 0 mm 2 mps 752 mmHg 46%
12:00 +29°C° 0 mm 3 mps 752 mmHg 41%
13:00 +29°C° 0 mm 3 mps 751 mmHg 40%
14:00 +29°C° 0 mm 3 mps 751 mmHg 39%
15:00 +30°C° 0 mm 3 mps 751 mmHg 38%
16:00 +29°C° 0 mm 2 mps 751 mmHg 43%
17:00 +28°C° 0 mm 2 mps 751 mmHg 49%
18:00 +27°C° 0 mm 1 mps 751 mmHg 54%
19:00 +25°C° 0.1 mm 2 mps 751 mmHg 60%
20:00 +23°C° 0.1 mm 2 mps 751 mmHg 66%
21:00 +20°C° 0.1 mm 3 mps 751 mmHg 71%
22:00 +19°C° 0.1 mm 2 mps 751 mmHg 70%
23:00 +20°C° 0.1 mm 1 mps 751 mmHg 69%

18 May, Tuesday

Time Temperature Precipitation Wind Pressure Humidity
00:00 +19°C° 0.1 mm 1 mps 751 mmHg 68%
01:00 +19°C° 0 mm 1 mps 751 mmHg 70%
02:00 +18°C° 0 mm 1 mps 751 mmHg 72%
03:00 +18°C° 0 mm 1 mps 751 mmHg 74%
04:00 +19°C° 0 mm 1 mps 751 mmHg 71%
05:00 +20°C° 0 mm 1 mps 751 mmHg 69%
06:00 +21°C° 0 mm 1 mps 751 mmHg 66%
07:00 +23°C° 0 mm 1 mps 751 mmHg 60%
08:00 +25°C° 0 mm 1 mps 751 mmHg 53%
09:00 +27°C° 0 mm 1 mps 751 mmHg 46%
10:00 +28°C° 0 mm 2 mps 751 mmHg 42%
11:00 +29°C° 0 mm 2 mps 751 mmHg 38%
12:00 +31°C° 0 mm 2 mps 751 mmHg 34%
13:00 +31°C° 0 mm 3 mps 751 mmHg 32%
14:00 +31°C° 0 mm 3 mps 751 mmHg 30%
15:00 +31°C° 0 mm 3 mps 751 mmHg 28%
16:00 +30°C° 0 mm 3 mps 751 mmHg 34%
17:00 +29°C° 0 mm 2 mps 751 mmHg 40%
18:00 +27°C° 0 mm 2 mps 750 mmHg 46%
19:00 +26°C° 0 mm 2 mps 751 mmHg 47%
20:00 +24°C° 0 mm 2 mps 751 mmHg 49%
21:00 +21°C° 0 mm 2 mps 751 mmHg 50%
22:00 +20°C° 0 mm 2 mps 751 mmHg 53%
23:00 +20°C° 0 mm 2 mps 751 mmHg 55%

19 May, Wednesday

Time Temperature Precipitation Wind Pressure Humidity
00:00 +19°C° 0 mm 2 mps 751 mmHg 58%
01:00 +19°C° 0 mm 2 mps 751 mmHg 59%
02:00 +18°C° 0 mm 2 mps 751 mmHg 60%
03:00 +18°C° 0 mm 2 mps 751 mmHg 62%
04:00 +19°C° 0 mm 2 mps 751 mmHg 61%
05:00 +20°C° 0 mm 2 mps 751 mmHg 61%
06:00 +20°C° 0 mm 2 mps 751 mmHg 60%
07:00 +22°C° 0 mm 3 mps 751 mmHg 54%
08:00 +25°C° 0 mm 3 mps 751 mmHg 49%
09:00 +27°C° 0 mm 4 mps 751 mmHg 43%
10:00 +28°C° 0 mm 4 mps 751 mmHg 40%
11:00 +29°C° 0 mm 4 mps 751 mmHg 37%
12:00 +30°C° 0 mm 4 mps 751 mmHg 33%
13:00 +32°C° 0 mm 4 mps 751 mmHg 33%
14:00 +32°C° 0 mm 4 mps 751 mmHg 33%
15:00 +32°C° 0 mm 4 mps 751 mmHg 33%
16:00 +30°C° 0 mm 4 mps 751 mmHg 39%
17:00 +29°C° 0 mm 3 mps 751 mmHg 45%
18:00 +28°C° 0 mm 2 mps 750 mmHg 51%
19:00 +25°C° 0.5 mm 2 mps 751 mmHg 57%
20:00 +23°C° 0.5 mm 2 mps 751 mmHg 63%
21:00 +19°C° 0.5 mm 2 mps 751 mmHg 69%
22:00 +19°C° 0 mm 3 mps 751 mmHg 69%
23:00 +19°C° 0 mm 3 mps 751 mmHg 69%
Show more

We Need Your Consent

Meteoprog and our Service Providers may store and access personal data such as cookies, device identifiers or other similar technologies on your device and process such data to personalise content and ads, as well as provide social media features and to analyse the traffic.

  • Store and/or access information on your device

    Cookies, device identifiers or other information can be stored or accessed on your device for the purposes indicated above.

  • Personalised ads and content, ad and content measurement, audience insights, and products development

    Ads and content can be personalised based on a profile. More data can be added to better personalise ads and content. Ad and content performance can be measured. Insights about the audience who saw the ads and content can be derived. Such data can be used to develop or improve user’s experience, systems and software.

By clicking ‘I Agree’ you will allow the use of indicated cookies, device identifiers, web beacons or other similar technologies. Your settings can be changed in the browser on your device.

For certain purposes, legitimate interests may be relied on, rather than consent. You can read more about this in our Privacy and Cookie Policy.